Location: Unnamed
(51.8936°N, 11.0665°E)
Time: 16:25:37
(UTC+02:00)

UKube-1 - Pass Details

Date: 27 September 2021
Orbit: 611 x 617 km, 98.4° (Epoch: 28 October)

Event Time Altitude Azimuth Distance (km) Brightness Sun altitude
Rises 22:16:22 0° 14° (NNE) 2,893 ? -28.8°
Reaches altitude 10° 22:18:34 10° 14° (NNE) 1,984 ? -29.0°
Enters shadow 22:19:57 20° 14° (NNE) 1,423 ? -29.2°
